FENGYUN 1C DEB, 41823

Orbit data source: Space-Track

FENGYUN 1C DEB, 41823 is space debris in SSO originally from a launch on Mon, 10 May 1999 UTC launched from the Taiyaun Space Center, China (TSC). Fengyun 1C debris stems from the Chinese weather satellite Fengyun-1C, which was intentionally destroyed by a Chinese anti-satellite missile in 2007. This event dramatically increased the amount of space debris, with thousands of trackable fragments posing hazards to satellites and human spaceflight. The Fengyun 1C debris cloud has become a focal point in discussions about space sustainability and the need for international regulations to prevent the creation of new debris.

Loading next visibility...
Identifier
41823, 1999-025EYA
Orbit
SSO
Country
Flag of CNCN / PRC
Related business
Manufacturer
Unknown
Mission
Spacecraft
Bus & Motor
Unknown
Mass
Unknown
Launch date (UTC)
1999-05-10 (27 years ago)
Launch vehicle
Unknown
Launch site
Taiyaun Space Center, China (TSC)
Object type
Payload
Rocket body
Debris
Shape & HBR
Unknown shape, 0.1 m
Radar Cross Section
Medium (>0.1 m² and <1 m²)

Expand to show TLE details & history
Last TLE update: 12 hours ago

TLE from 12 hours ago
0 FENGYUN 1C DEB
1 41823U 99025EYA 26256.41032226  .00001793  00000-0  77286-3 0  9997
2 41823  98.7001 322.3309 0054895 151.6956 208.7224 14.24975058512683
Epoch: 2026-09-13T09:50Z
TLE epoch observation values (Epoch: 2026-09-13T09:50:51.843Z)
Latitude
-0.0001°
Longitude
-177.79047°
Altitude
846.152 km
Speed
7.412 km/s
True Right ascension
21h 29m 19s
True Declination
0° 00' 00"
Sunlit
Object was in full shadow at epoch
Visualization orbit readout
Latitude
Unknown
Longitude
Unknown
Altitude
Unknown
Speed
Unknown
Apparent Right ascension
Unknown
Apparent Declination
Unknown
Sunlit
N/A
Visualization observer readout
Local Sidereal Time
14:22:19
Azimuth
Unknown
Elevation
Unknown
Doppler factor
Unknown
Orbital elements
Apogee altitude
845.164 km
Perigee altitude
766.292 km
Semi-major axis
7,183.865 km
Eccentricity
0.00549
Inclination
98.7001°
RAAN
322.3309°
Arg. of periapsis
151.6956°
True anomaly
208.42191°
Mean anomaly
208.7224°
Eccentric anomaly
208.57197°
Mean motion
3.56456 °/min
Orbital period
100.99 mins
BSTAR
0.00077286
Loading maneuver chart data...
Computing Atmospheric mass density...
Loading historical data...
Loading historical data...
Loading historical data...
Loading historical data...
Loading historical data...
Loading historical data...
Loading historical data...

Documentation

Showing up to 5 results
|